Occasions de marché

Parcourez la liste des occasions de marché et inscrivez-vous aux notifications pour rester informé. Pour télécharger l'information sur les contrats affichée sur AchatsCanada et l'historique des contrats : 


Catégories d'avis

10 of 17051
Liste des avis d'appel d'offres. Les colonnes sont triable par ordre croissant ou décroissant.
Titre Catégorie Date de début ou de modification Date de clôture Organisation
Kinetic Notice of Inetent 2023.2 Services, Construction, Biens 2023/10/30 2024/10/31 Kinetic GPO
Kinetic 22-167 The Connection - Notice of Early Works ITT 2023/12/04 2023/12/19 Greater Vancouver Regional District (…
Utility Work Machines Biens 2020/08/07 2020/09/16 Ministère de la défense nationale
Utility Work Machine with Hitch 2022/06/27 2022/07/21 City of North Vancouver
NOI 23.0012 UTILITY WORK MACHINES – TWO (2) Biens 2023/03/28
Modifié
2023/04/12 Strathcona County
WorkSafeBC RFI for Castlegar 2023/10/19 2023/10/20 WorkSafeBC
WorkSafeBC RFI for Nanaimo 2023/10/19 2023/10/20 WorkSafeBC
WorkSafeBC RFI for Abbotsford 2023/10/19 2023/10/20 WorkSafeBC
WorkSafeBC RFI for Victoria 2023/10/19 2023/10/20 WorkSafeBC
WorkSafeBC RFI for Terrace 2023/10/19 2023/10/20 WorkSafeBC
Displaying 1 - 10 of
10 of 25185
25185
Liste des avis d'attribution. Les colonnes sont triable par ordre croissant ou décroissant.
Titre Catégorie Date de l’attribution ou de modification Date de clôture Organisation
Machines d'essai Biens 2013/12/20 N / A Ressources naturelles Canada
Machines des industries des pâtes et papiers Biens 2012/02/24 N / A Ministère de la défense nationale
Machines des industries des pâtes et papiers Biens 2012/03/06 N / A Affaires autochtones et Développement du…
Machines des industries des pâtes et papiers Biens 2012/07/06 N / A Ministère de la défense nationale
Machines des industries des pâtes et papiers Biens 2013/01/18 N / A Travaux publics et Services…
MACHINE A COUDRE,INDUSTRIELLE Biens 2020/10/19 N / A Ministère de la défense nationale
Machine de découpe au jet d'eau Biens 2015/02/04 N / A Ressources naturelles Canada
Modif 009 - Transports (RandD) - RONA Kinetics and Associates Ltd. Services 2024/04/22
Modifié
2024/03/29 Ministère des Transports (TC)
Machine a découper par jet d'eau Biens 2018/12/28 N / A Ministère de la défense nationale
Machines à affranchir Biens 2015/12/30 N / A Agence du revenu du Canada
50 of 140705
Liste des informations sur l'historique du contrat. Les colonnes sont triable par ordre croissant ou décroissant.
Nom de l’entreprise Numéro du contrat Organisation Date de l’attribution ou de modification Valeur du contrat ou de la modification
Kinetic Machine Works Ltd. ET025-210010/001/PWZ Travaux publics et Services… 2022/12/13 CAD 76,522.00
Kinetic Machine Works Ltd. ET025-210010/001/PWZ Travaux publics et Services… 2022/03/07 CAD -10,222.00
Kinetic Machine Works Ltd. ET025-210010/001/PWZ Travaux publics et Services… 2021/10/12 CAD -27,450.00
Kinetic Machine Works Ltd. ET025-210010/001/PWZ Travaux publics et Services… 2021/09/29 CAD 437,308.00
Kinetic Machine Works Ltd. ET025-210010/001/PWZ Travaux publics et Services… 2021/06/22 CAD 219,672.00
Kinetic Machine Works Ltd. ET025-210010/001/PWZ Travaux publics et Services… 2021/03/22 CAD 231,815.00
Kinetic Machine Works Ltd. ET025-210010/001/PWZ Travaux publics et Services… 2020/07/08 CAD 3,746,761.00
Kinetic Machine Works Ltd. W4M00-17C707/001/WPG Ministère de la défense nationale 2022/04/29 CAD 174,825.00
Kinetic Machine Works Ltd. W4M00-17C707/001/WPG Ministère de la défense nationale 2021/02/04 CAD 55,005.00
Kinetic Machine Works Ltd. F1782-19C024/001/XLV Pêches et Océans Canada 2020/05/07 CAD 56,359.00
Kinetic Machine Works Ltd. F1782-19C024/001/XLV Pêches et Océans Canada 2020/03/31 CAD 27,658.00
Kinetic Machine Works Ltd. F1782-19C024/001/XLV Pêches et Océans Canada 2020/03/10 CAD 5,842.00
Kinetic Machine Works Ltd. F1782-19C024/001/XLV Pêches et Océans Canada 2020/02/07 CAD 26,711.00
Kinetic Machine Works Ltd. W4M00-17C707/001/WPG Ministère de la défense nationale 2019/11/06 CAD 48,000.00
Kinetic Machine Works Ltd. F1782-19C024/001/XLV Pêches et Océans Canada 2019/10/11 CAD 585,307.00
Kinetic Machine Works Ltd. W4M00-17C707/001/WPG Ministère de la défense nationale 2018/07/04 CAD 71,820.00
Venables Machine Works Ltd. 01550-110332/001/XSB Agriculture et Agroalimentaire Canada 2011/03/15 CAD 7,028.00
Venables Machine Works Ltd. 01550-110332/001/XSB Agriculture et Agroalimentaire Canada 2010/12/01 CAD 7,028.00
Ramsay Machine Works Ltd. 31034-082336/001/VIC Conseil national de recherches du Canada 2009/04/29 CAD 184,081.00
Ramsay Machine Works Ltd. 31034-082336/001/VIC Conseil national de recherches du Canada 2009/03/02 CAD 184,081.00
Ramsay Machine Works Ltd. 31034-082336/001/VIC Conseil national de recherches du Canada 2009/03/02 CAD 184,081.00
Rector Machine Works Ltd. W3699-101146/001/TNB Ministère de la défense nationale 2010/05/18 CAD 15,309.00
MULGRAVE MACHINE WORKS LIMITED 23375-160896/001/HS Ressources naturelles Canada 2016/08/26 CAD 72,004.00
MULGRAVE MACHINE WORKS LIMITED 23375-161357/001/HL Ressources naturelles Canada 2016/07/04 CAD 45,307.00
MULGRAVE MACHINE WORKS LIMITED 23375-161357/001/HL Ressources naturelles Canada 2016/06/21 CAD 45,307.00
MULGRAVE MACHINE WORKS LIMITED 23295-130044/001/EDM Ressources naturelles Canada 2012/08/15 CAD 44,574.00
Ed-Mack Machine Works Limited W3699-091126/001/TNB Ministère de la défense nationale 2009/12/01 CAD 22,050.00
MULGRAVE MACHINE WORKS LIMITED F2599-155001/001/ML Pêches et Océans Canada 2016/01/06 CAD 82,773.00
MULGRAVE MACHINE WORKS LIMITED F2599-155001/001/ML Pêches et Océans Canada 2015/05/15 CAD 82,773.00
Selkirk Machine Works(1982)Ltd. ET025-160612/001/PWU Travaux publics et Services… 2016/03/16 CAD 150,000.00
Target Hydraulics and Machine Works Ltd MA021-210071/001/HAL MARINE ATLANTIQUE S.C.C. 2022/05/16 CAD 1,840,000.00
Target Hydraulics and Machine Works Ltd MA021-210071/001/HAL MARINE ATLANTIQUE S.C.C. 2022/03/18 CAD 1,840,000.00
Target Hydraulics and Machine Works Ltd MA021-210071/001/HAL MARINE ATLANTIQUE S.C.C. 2022/03/18 CAD 1,840,000.00
Kinetic Construction Ltd. F1700-195560/001/PWY Pêches et Océans Canada 2022/07/15 CAD 191,517.00
Kinetic Construction Ltd. F1700-195560/001/PWY Pêches et Océans Canada 2022/06/22 CAD 26,841.00
Kinetic Construction Ltd. F1700-195560/001/PWY Pêches et Océans Canada 2022/05/05 CAD 13,036.00
Kinetic Construction Ltd. F1700-195560/001/PWY Pêches et Océans Canada 2022/04/01 CAD 10,151.00
Kinetic Construction Ltd. F1700-195560/001/PWY Pêches et Océans Canada 2022/02/10 CAD 39,060.00
Kinetic Construction Ltd. F1700-195560/001/PWY Pêches et Océans Canada 2022/01/27 CAD 194,014.00
Kinetic Construction Ltd. F1700-195560/001/PWY Pêches et Océans Canada 2021/11/30 CAD -513,518.00
Kinetic Construction Ltd. F1700-195560/001/PWY Pêches et Océans Canada 2021/11/30 CAD 547,552.00
Kinetic Construction Ltd. F1700-195560/001/PWY Pêches et Océans Canada 2021/11/18 CAD 377,307.00
Kinetic Construction Ltd. F1700-195560/001/PWY Pêches et Océans Canada 2021/06/30 CAD 103,161.00
Kinetic Construction Ltd. F1700-195560/001/PWY Pêches et Océans Canada 2021/03/18 CAD 689,328.00
Kinetic Construction Ltd. F1700-195560/001/PWY Pêches et Océans Canada 2021/02/15 CAD 136,212.00
Kinetic Construction Ltd. F1700-195560/001/PWY Pêches et Océans Canada 2020/10/27 CAD 96,125.00
Kinetic Construction Ltd. F1700-195560/001/PWY Pêches et Océans Canada 2020/07/09 CAD 8,272,841.00
Kinetic Construction Ltd. EZ899-190130/001/PWY Travaux publics et Services… 2020/02/11 CAD 17,082.00
Kinetic Construction Ltd. EZ899-190130/001/PWY Travaux publics et Services… 2020/01/22 CAD -31,379.00
Kinetic Construction Ltd. EZ899-190130/001/PWY Travaux publics et Services… 2019/12/19 CAD 41,197.00

Quelques informations utiles

Téléchargez l’application mobile

Accédez à SAP Ariba à partir de votre appareil mobile.

Télécharger l’application mobile de SAP Ariba dans l’App Store
Télécharger l’application mobile de SAP Ariba dans Google Play

Inscrivez votre entreprise pour voir les occasions de marché et soumissionner.

Obtenez un aperçu du notre processus d’achat, y compris de l'information sur les politiques et les lignes directrices.

Découvrez la façon de vous préparer à vendre au gouvernement du Canada.

Lisez les dernières nouvelles et découvrez les événements à venir.

Date de modification: